• In Portugal
  • List of Countries
  • For 7 days
  • Water Temperature
  • Satellite Maps
  • Weather Map
  • Weather Widgets
  • user-avatar
    Login

    Hourly Weather Akaba

    Today, 24 November, Friday

    Time Temperature Precipitation Wind Pressure Humidity
    00:00 +15°C° 0 mm 1 mps 753 mmHg 71%
    01:00 +15°C° 0 mm 1 mps 753 mmHg 72%
    02:00 +14°C° 0 mm 1 mps 753 mmHg 74%
    03:00 +14°C° 0 mm 1 mps 753 mmHg 75%
    04:00 +14°C° 0 mm 1 mps 753 mmHg 75%
    05:00 +13°C° 0 mm 1 mps 753 mmHg 75%
    06:00 +14°C° 0 mm 1 mps 753 mmHg 70%
    07:00 +15°C° 0 mm 2 mps 754 mmHg 65%
    08:00 +17°C° 0 mm 2 mps 754 mmHg 58%
    09:00 +18°C° 0 mm 2 mps 754 mmHg 53%
    10:00 +19°C° 0 mm 2 mps 754 mmHg 47%
    11:00 +20°C° 0 mm 3 mps 754 mmHg 42%
    12:00 +21°C° 0 mm 3 mps 753 mmHg 39%
    13:00 +22°C° 0 mm 3 mps 753 mmHg 37%
    14:00 +22°C° 0 mm 3 mps 753 mmHg 34%
    15:00 +22°C° 0 mm 3 mps 753 mmHg 36%
    16:00 +21°C° 0 mm 3 mps 753 mmHg 38%
    17:00 +20°C° 0 mm 3 mps 753 mmHg 40%
    18:00 +19°C° 0 mm 3 mps 753 mmHg 42%
    19:00 +19°C° 0 mm 3 mps 753 mmHg 44%
    20:00 +18°C° 0 mm 2 mps 753 mmHg 46%
    21:00 +18°C° 0 mm 2 mps 753 mmHg 47%
    22:00 +17°C° 0 mm 2 mps 753 mmHg 49%
    23:00 +17°C° 0 mm 2 mps 753 mmHg 50%

    Tomorrow, 25 November, Saturday

    Time Temperature Precipitation Wind Pressure Humidity
    00:00 +16°C° 0 mm 2 mps 753 mmHg 51%
    01:00 +16°C° 0 mm 2 mps 753 mmHg 51%
    02:00 +16°C° 0 mm 1 mps 753 mmHg 52%
    03:00 +15°C° 0 mm 2 mps 753 mmHg 52%
    04:00 +15°C° 0 mm 2 mps 753 mmHg 51%
    05:00 +15°C° 0 mm 2 mps 753 mmHg 51%
    06:00 +16°C° 0 mm 2 mps 753 mmHg 47%
    07:00 +17°C° 0 mm 2 mps 753 mmHg 44%
    08:00 +18°C° 0 mm 2 mps 753 mmHg 40%
    09:00 +20°C° 0 mm 2 mps 753 mmHg 37%
    10:00 +21°C° 0 mm 2 mps 752 mmHg 34%
    11:00 +24°C° 0 mm 2 mps 752 mmHg 32%
    12:00 +24°C° 0 mm 2 mps 751 mmHg 31%
    13:00 +24°C° 0 mm 2 mps 751 mmHg 31%
    14:00 +25°C° 0 mm 1 mps 750 mmHg 30%
    15:00 +24°C° 0 mm 1 mps 750 mmHg 31%
    16:00 +23°C° 0 mm 1 mps 750 mmHg 33%
    17:00 +22°C° 0 mm 1 mps 750 mmHg 35%
    18:00 +22°C° 0 mm 1 mps 750 mmHg 36%
    19:00 +21°C° 0 mm 1 mps 751 mmHg 38%
    20:00 +20°C° 0 mm 1 mps 751 mmHg 39%
    21:00 +20°C° 0 mm 1 mps 751 mmHg 41%
    22:00 +19°C° 0 mm 1 mps 751 mmHg 44%
    23:00 +18°C° 0 mm 2 mps 751 mmHg 46%

    Day after tomorrow, 26 November, Sunday

    Time Temperature Precipitation Wind Pressure Humidity
    00:00 +17°C° 0 mm 2 mps 751 mmHg 50%
    01:00 +17°C° 0 mm 2 mps 751 mmHg 53%
    02:00 +16°C° 0 mm 2 mps 751 mmHg 57%
    03:00 +16°C° 0 mm 2 mps 751 mmHg 61%
    04:00 +16°C° 0 mm 2 mps 751 mmHg 65%
    05:00 +15°C° 0 mm 2 mps 751 mmHg 69%
    06:00 +16°C° 0 mm 2 mps 752 mmHg 67%
    07:00 +17°C° 0 mm 2 mps 752 mmHg 66%
    08:00 +18°C° 0 mm 2 mps 753 mmHg 65%
    09:00 +19°C° 0 mm 2 mps 753 mmHg 59%
    10:00 +20°C° 0 mm 2 mps 753 mmHg 53%
    11:00 +21°C° 0 mm 3 mps 752 mmHg 47%
    12:00 +21°C° 0 mm 3 mps 752 mmHg 45%
    13:00 +22°C° 0 mm 3 mps 752 mmHg 43%
    14:00 +22°C° 0 mm 3 mps 751 mmHg 42%
    15:00 +22°C° 0 mm 3 mps 751 mmHg 45%
    16:00 +21°C° 0 mm 3 mps 752 mmHg 48%
    17:00 +20°C° 0 mm 3 mps 752 mmHg 52%
    18:00 +19°C° 0 mm 3 mps 752 mmHg 56%
    19:00 +19°C° 0 mm 2 mps 753 mmHg 59%
    20:00 +18°C° 0 mm 2 mps 753 mmHg 63%
    21:00 +18°C° 0 mm 2 mps 753 mmHg 66%
    22:00 +17°C° 0 mm 2 mps 753 mmHg 69%
    23:00 +18°C° 0 mm 1 mps 753 mmHg 72%

    27 November, Monday

    Time Temperature Precipitation Wind Pressure Humidity
    00:00 +16°C° 0 mm 1 mps 753 mmHg 74%
    01:00 +16°C° 0 mm 1 mps 753 mmHg 76%
    02:00 +15°C° 0 mm 1 mps 753 mmHg 79%
    03:00 +15°C° 0 mm 1 mps 753 mmHg 79%
    04:00 +15°C° 0 mm 1 mps 753 mmHg 80%
    05:00 +15°C° 0 mm 1 mps 753 mmHg 81%
    06:00 +15°C° 0 mm 1 mps 754 mmHg 75%
    07:00 +16°C° 0 mm 1 mps 754 mmHg 70%
    08:00 +18°C° 0 mm 1 mps 754 mmHg 64%
    09:00 +19°C° 0 mm 1 mps 754 mmHg 59%
    10:00 +21°C° 0 mm 1 mps 754 mmHg 53%
    11:00 +22°C° 0 mm 1 mps 754 mmHg 47%
    12:00 +22°C° 0 mm 1 mps 753 mmHg 45%
    13:00 +23°C° 0 mm 2 mps 753 mmHg 42%
    14:00 +23°C° 0 mm 2 mps 752 mmHg 40%
    15:00 +23°C° 0 mm 2 mps 752 mmHg 42%
    16:00 +21°C° 0 mm 2 mps 752 mmHg 45%
    17:00 +20°C° 0 mm 2 mps 752 mmHg 47%
    18:00 +20°C° 0 mm 2 mps 753 mmHg 49%
    19:00 +19°C° 0 mm 2 mps 753 mmHg 51%
    20:00 +19°C° 0 mm 1 mps 753 mmHg 54%
    21:00 +19°C° 0 mm 1 mps 753 mmHg 55%
    22:00 +18°C° 0 mm 1 mps 753 mmHg 57%
    23:00 +18°C° 0 mm 1 mps 753 mmHg 59%

    28 November, Tuesday

    Time Temperature Precipitation Wind Pressure Humidity
    00:00 +18°C° 0 mm 1 mps 753 mmHg 60%
    01:00 +16°C° 0 mm 1 mps 753 mmHg 62%
    02:00 +16°C° 0 mm 1 mps 752 mmHg 63%
    03:00 +16°C° 0 mm 1 mps 752 mmHg 64%
    04:00 +15°C° 0 mm 1 mps 752 mmHg 66%
    05:00 +15°C° 0 mm 1 mps 752 mmHg 67%
    06:00 +16°C° 0 mm 1 mps 753 mmHg 61%
    07:00 +19°C° 0 mm 1 mps 753 mmHg 55%
    08:00 +20°C° 0 mm 1 mps 753 mmHg 50%
    09:00 +21°C° 0 mm 1 mps 753 mmHg 45%
    10:00 +22°C° 0 mm 1 mps 753 mmHg 40%
    11:00 +23°C° 0 mm 2 mps 752 mmHg 36%
    12:00 +24°C° 0 mm 2 mps 752 mmHg 34%
    13:00 +25°C° 0 mm 2 mps 751 mmHg 32%
    14:00 +25°C° 0 mm 2 mps 751 mmHg 30%
    15:00 +24°C° 0 mm 2 mps 751 mmHg 33%
    16:00 +23°C° 0 mm 2 mps 751 mmHg 35%
    17:00 +21°C° 0 mm 2 mps 751 mmHg 37%
    18:00 +20°C° 0 mm 2 mps 751 mmHg 39%
    19:00 +20°C° 0 mm 2 mps 752 mmHg 41%
    20:00 +19°C° 0 mm 2 mps 752 mmHg 43%
    21:00 +18°C° 0 mm 2 mps 752 mmHg 45%
    22:00 +19°C° 0 mm 1 mps 752 mmHg 47%
    23:00 +18°C° 0 mm 1 mps 752 mmHg 49%

    29 November, Wednesday

    Time Temperature Precipitation Wind Pressure Humidity
    00:00 +18°C° 0 mm 1 mps 752 mmHg 50%
    01:00 +18°C° 0 mm 1 mps 752 mmHg 52%
    02:00 +16°C° 0 mm 1 mps 752 mmHg 53%
    03:00 +16°C° 0 mm 1 mps 752 mmHg 54%
    04:00 +16°C° 0 mm 1 mps 752 mmHg 55%
    05:00 +16°C° 0 mm 1 mps 752 mmHg 56%
    06:00 +18°C° 0 mm 1 mps 752 mmHg 53%
    07:00 +19°C° 0 mm 1 mps 752 mmHg 49%
    08:00 +20°C° 0 mm 1 mps 753 mmHg 45%
    09:00 +20°C° 0 mm 2 mps 753 mmHg 41%
    10:00 +21°C° 0 mm 2 mps 752 mmHg 37%
    11:00 +24°C° 0 mm 2 mps 752 mmHg 33%
    12:00 +24°C° 0 mm 3 mps 752 mmHg 32%
    13:00 +24°C° 0 mm 3 mps 752 mmHg 30%
    14:00 +25°C° 0 mm 3 mps 751 mmHg 29%
    15:00 +24°C° 0 mm 3 mps 751 mmHg 31%
    16:00 +22°C° 0 mm 3 mps 752 mmHg 33%
    17:00 +21°C° 0 mm 2 mps 752 mmHg 36%
    18:00 +20°C° 0 mm 2 mps 752 mmHg 38%
    19:00 +19°C° 0 mm 2 mps 753 mmHg 40%
    20:00 +19°C° 0 mm 2 mps 753 mmHg 42%
    21:00 +18°C° 0 mm 2 mps 753 mmHg 45%
    22:00 +17°C° 0 mm 2 mps 753 mmHg 47%
    23:00 +17°C° 0 mm 2 mps 753 mmHg 49%
    Show more